1514394000.21,65053,4.75,71586.5,-6.53,-7.39,-7.49,0,*52
1514394001.46,65054,4.75,71598.5,-6.53,-7.49,-7.61,0,*58
1514394002.68,65055,4.75,71624.3,-6.53,-7.53,-7.53,0,*53
1514394003.89,65056,4.75,71608.3,-6.53,-7.53,-7.53,0,*50
1514394005.08,65057,4.75,71616.0,-6.51,-7.49,-7.49,0,*53
1514394006.36,65058,4.75,71604.3,-6.53,-7.61,-7.61,0,*5E
1514394007.58,65059,4.75,71626.3,-6.53,-7.53,-7.53,0,*5F
1514394008.79,65060,4.75,71648.3,-6.53,-7.53,-7.53,0,*55
1514394010.07,65061,4.75,71642.8,-6.53,-7.61,-7.61,0,*54
1514394011.29,65062,4.75,71654.3,-6.55,-7.65,-7.53,0,*54
1514394012.51,65063,4.75,71656.3,-6.53,-7.53,-7.53,0,*56
1514394013.75,65064,4.75,71602.3,-6.53,-7.61,-7.53,0,*50
1514394015.02,65065,4.75,71616.5,-6.53,-7.39,-7.39,0,*50
1514394016.28,65066,4.75,71608.3,-6.53,-7.39,-7.35,0,*5F
1514394017.5,65067,4.75,71614.3,-6.55,-7.49,-7.39,0,*53
1514394018.72,65068,4.75,71602.5,-6.53,-7.49,-7.49,0,*5D
1514394019.94,65069,4.75,71612.5,-6.53,-7.53,-7.53,0,*5C
1514394021.18,65070,4.75,71596.0,-6.53,-7.53,-7.61,0,*55
1514394022.4,65071,4.75,71614.0,-6.53,-7.53,-7.53,0,*55
1514394023.62,65072,4.75,71592.5,-6.53,-7.53,-7.53,0,*56
1514394024.83,65073,4.75,71596.8,-6.53,-7.53,-7.53,0,*57
1514394026.1,65074,4.75,71606.3,-6.53,-7.39,-7.39,0,*50
1514394027.34,65075,4.75,71606.3,-6.51,-7.35,-7.35,0,*53
1514394028.59,65076,4.75,71602.0,-6.51,-7.35,-7.31,0,*54
1514394029.84,65077,4.75,71586.8,-6.51,-7.35,-7.31,0,*55
1514394031.09,65078,4.75,71586.3,-6.51,-7.35,-7.35,0,*5E
1514394032.33,65079,4.75,71582.3,-6.51,-7.31,-7.39,0,*57
1514394033.56,65080,4.75,71592.0,-6.51,-7.57,-7.49,0,*56
1514394034.75,65081,4.75,71602.8,-6.51,-7.49,-7.49,0,*58
1514394036.02,65082,4.75,71588.3,-6.53,-7.39,-7.39,0,*59
1514394037.26,65083,4.75,71582.3,-6.53,-7.61,-7.53,0,*59
1514394038.45,65084,4.75,71626.5,-6.51,-7.49,-7.49,0,*5D
1514394039.7,65085,4.75,71574.0,-6.51,-7.35,-7.43,0,*5D
1514394040.98,65086,4.75,71554.0,-6.53,-7.65,-7.65,0,*5D
1514394042.23,65087,4.75,71558.3,-6.51,-7.61,-7.69,0,*56
1514394043.47,65088,4.75,71578.5,-6.51,-7.61,-7.69,0,*59
1514394044.75,65089,4.75,71580.3,-6.53,-7.61,-7.65,0,*56
1514394045.98,65090,4.75,71582.5,-6.55,-7.73,-7.87,0,*57
1514394047.23,65091,4.75,71594.8,-6.53,-7.73,-7.87,0,*50
1514394048.48,65092,4.75,71584.0,-6.53,-7.53,-7.65,0,*5D
1514394049.72,65093,4.75,71568.8,-6.53,-7.61,-7.53,0,*58
1514394051.0,65094,4.75,71550.8,-6.53,-7.65,-7.65,0,*5E
1514394052.27,65095,4.75,71568.5,-6.53,-7.73,-7.73,0,*5F
1514394053.5,65096,4.75,71578.3,-6.53,-7.87,-7.87,0,*5C
1514394054.77,65097,4.75,71578.3,-6.53,-7.65,-7.61,0,*59
1514394056.0,65098,4.75,71546.0,-6.53,-7.87,-7.87,0,*52
1514394057.27,65099,4.75,71576.5,-6.53,-7.61,-7.65,0,*57
1514394058.51,65100,4.75,71576.8,-6.53,-7.61,-7.53,0,*53
1514394059.73,65101,4.75,71568.3,-6.53,-7.53,-7.53,0,*53
1514394061.01,65102,4.75,71574.5,-6.53,-7.73,-7.77,0,*54
1514394062.28,65103,4.75,71576.3,-6.53,-7.77,-7.99,0,*51
1514394063.54,65104,4.75,71564.8,-6.53,-7.91,-8.11,0,*51
1514394064.79,65105,4.75,71568.0,-6.53,-7.87,-7.77,0,*58
1514394066.07,65106,4.75,71548.8,-6.53,-7.65,-7.65,0,*54
1514394067.33,65107,4.75,71556.0,-6.53,-7.39,-7.61,0,*58
1514394068.59,65108,4.75,71572.8,-6.53,-7.73,-7.87,0,*51
1514394069.79,65109,4.75,71576.3,-6.51,-7.83,-7.87,0,*5D
1514394071.04,65110,4.75,71582.0,-6.51,-8.07,-7.99,0,*59
1514394072.26,65111,4.75,71574.8,-6.53,-7.87,-7.87,0,*52
1514394073.46,65112,4.75,71546.5,-6.51,-7.87,-7.87,0,*53
1514394074.69,65113,4.75,71534.0,-6.51,-7.73,-7.83,0,*5D
1514394075.9,65114,4.75,71550.8,-6.51,-7.83,-7.83,0,*55
1514394077.1,65115,4.75,71560.3,-6.51,-7.83,-7.87,0,*50
1514394078.37,65116,4.75,71566.8,-6.53,-7.73,-7.77,0,*51
1514394079.62,65117,4.75,71566.3,-6.53,-7.77,-7.87,0,*5B
1514394080.87,65118,4.75,71550.8,-6.53,-7.87,-7.77,0,*54
1514394082.09,65119,4.75,71538.3,-6.53,-7.87,-7.87,0,*5A
1514394083.34,65120,4.75,71552.0,-6.55,-7.99,-7.91,0,*5E
1514394084.59,65121,4.75,71538.3,-6.53,-7.87,-7.73,0,*5A
1514394085.86,65122,4.75,71580.5,-6.53,-7.77,-7.77,0,*52
1514394087.13,65123,4.75,71580.8,-6.53,-7.77,-7.73,0,*57
1514394088.41,65124,4.75,71594.0,-6.53,-7.65,-7.65,0,*54
1514394089.66,65125,4.75,71584.8,-6.55,-7.61,-7.73,0,*50
1514394090.91,65126,4.75,71560.5,-6.55,-7.77,-7.73,0,*54
1514394092.11,65127,4.75,71554.0,-6.55,-7.53,-7.49,0,*5A
1514394093.33,65128,4.75,71550.5,-6.55,-7.49,-7.39,0,*59
1514394094.55,65129,4.75,71584.8,-6.53,-7.53,-7.49,0,*52
1514394095.81,65130,4.75,71576.3,-6.55,-7.65,-7.61,0,*53
1514394097.07,65131,4.75,71570.8,-6.53,-7.39,-7.39,0,*50
1514394098.29,65132,4.75,71608.3,-6.53,-7.49,-7.49,0,*53
1514394099.48,65133,4.75,71622.0,-6.55,-7.49,-7.53,0,*5F
1514394100.68,65134,4.75,71598.5,-6.55,-7.49,-7.49,0,*53
1514394101.89,65135,4.75,71596.3,-6.53,-7.53,-7.53,0,*54
1514394103.11,65136,4.75,71598.3,-6.53,-7.49,-7.49,0,*57
1514394104.33,65137,4.75,71588.3,-6.53,-7.53,-7.49,0,*5D
1514394105.57,65138,4.75,71574.8,-6.53,-7.65,-7.53,0,*5C
1514394106.81,65139,4.75,71576.8,-6.53,-7.49,-7.39,0,*5F
1514394108.07,65140,4.75,71552.8,-6.55,-7.65,-7.65,0,*50
1514394109.32,65141,4.75,71550.5,-6.55,-7.61,-7.61,0,*51
1514394110.57,65142,4.75,71598.3,-6.53,-7.65,-7.53,0,*51
1514394111.76,65143,4.75,71586.3,-6.55,-7.53,-7.53,0,*53
1514394113.03,65144,4.75,71576.3,-6.53,-7.65,-7.65,0,*52
1514394114.31,65145,4.75,71574.0,-6.53,-7.61,-7.61,0,*53
1514394115.58,65146,4.75,71602.3,-6.53,-7.61,-7.65,0,*54
1514394116.8,65147,4.75,71572.3,-6.53,-7.53,-7.53,0,*51
1514394118.07,65148,4.75,71580.3,-6.53,-7.61,-7.65,0,*5A
1514394119.27,65149,4.75,71596.5,-6.55,-7.53,-7.53,0,*59
1514394120.55,65150,4.75,71574.0,-6.53,-7.65,-7.61,0,*53
1514394121.83,65151,4.75,71602.8,-6.53,-7.73,-7.61,0,*55
1514394123.04,65152,4.75,71576.0,-6.53,-7.53,-7.53,0,*55
1514394124.27,65153,4.75,71586.8,-6.55,-7.53,-7.61,0,*53
1514394125.55,65154,4.75,71576.0,-6.53,-7.73,-7.61,0,*50
1514394126.8,65155,4.75,71580.0,-6.55,-7.65,-7.61,0,*50
1514394128.08,65156,4.75,71606.3,-6.53,-7.65,-7.61,0,*55
1514394129.29,65157,4.75,71598.5,-6.53,-7.49,-7.53,0,*5B
1514394130.54,65158,4.75,71600.5,-6.53,-7.61,-7.53,0,*5E
1514394131.81,65159,4.75,71630.3,-6.53,-7.61,-7.61,0,*5E
1514394133.01,65160,4.75,71584.8,-6.55,-7.53,-7.53,0,*52
1514394134.24,65161,4.75,71602.3,-6.55,-7.53,-7.61,0,*52
1514394135.45,65162,4.75,71608.3,-6.53,-7.49,-7.49,0,*56
1514394136.67,65163,4.75,71604.0,-6.53,-7.49,-7.49,0,*57
1514394137.89,65164,4.75,71604.8,-6.53,-7.53,-7.53,0,*50
1514394139.11,65165,4.75,71608.8,-6.55,-7.53,-7.39,0,*5B
1514394140.36,65166,4.75,71612.5,-6.51,-7.43,-7.43,0,*50
1514394141.61,65167,4.75,71616.0,-6.51,-7.43,-7.35,0,*50
1514394142.83,65168,4.75,71626.0,-6.53,-7.49,-7.49,0,*5C
1514394144.08,65169,4.75,71622.3,-6.53,-7.53,-7.61,0,*5C
1514394145.29,65170,4.75,71610.5,-6.53,-7.53,-7.53,0,*55
1514394146.54,65171,4.75,71586.8,-6.53,-7.61,-7.53,0,*55
1514394147.78,65172,4.75,71612.8,-6.53,-7.61,-7.53,0,*56
1514394148.99,65173,4.75,71620.3,-6.53,-7.53,-7.53,0,*56
1514394150.24,65174,4.75,71612.8,-6.53,-7.49,-7.39,0,*56
1514394151.51,65175,4.75,71612.5,-6.53,-7.65,-7.61,0,*54
1514394152.71,65176,4.75,71610.3,-6.51,-7.49,-7.49,0,*51
1514394153.93,65177,4.75,71616.5,-6.51,-7.57,-7.49,0,*5F
1514394155.15,65178,4.75,71604.3,-6.51,-7.49,-7.57,0,*50
1514394156.38,65179,4.75,71622.5,-6.51,-7.49,-7.43,0,*54
1514394157.6,65180,4.75,71600.3,-6.53,-7.53,-7.49,0,*51
1514394158.85,65181,4.75,71594.3,-6.55,-7.61,-7.65,0,*59
1514394160.13,65182,4.75,71606.3,-6.53,-7.73,-7.65,0,*5F
1514394161.38,65183,4.75,71592.8,-6.55,-7.65,-7.61,0,*5B
1514394162.6,65184,4.75,71626.8,-6.53,-7.53,-7.53,0,*5E
1514394163.79,65185,4.75,71650.3,-6.55,-7.53,-7.49,0,*52
1514394165.01,65186,4.75,71592.0,-6.53,-7.53,-7.53,0,*5C
1514394166.26,65187,4.75,71602.8,-6.53,-7.53,-7.61,0,*5C
1514394167.48,65188,4.75,71622.5,-6.53,-7.49,-7.49,0,*52
1514394168.69,65189,4.75,71626.3,-6.53,-7.49,-7.53,0,*58
1514394169.95,65190,4.75,71622.8,-6.53,-7.39,-7.39,0,*5B
1514394171.17,65191,4.75,71628.8,-6.53,-7.49,-7.49,0,*5A
1514394172.41,65192,4.75,71630.8,-6.53,-7.53,-7.39,0,*55
1514394173.63,65193,4.75,71640.5,-6.53,-7.53,-7.53,0,*58
1514394174.87,65194,4.75,71644.0,-6.53,-7.61,-7.53,0,*5E
1514394176.07,65195,4.75,71638.8,-6.51,-7.49,-7.49,0,*5C
1514394177.29,65196,4.75,71670.5,-6.53,-7.53,-7.49,0,*56
1514394178.53,65197,4.75,71650.8,-6.53,-7.39,-7.49,0,*5B
1514394179.74,65198,4.75,71640.0,-6.53,-7.49,-7.49,0,*53
1514394180.96,65199,4.75,71648.5,-6.51,-7.49,-7.57,0,*5F
1514394182.22,65200,4.75,71660.0,-6.51,-7.57,-7.57,0,*53
1514394183.47,65201,4.75,71632.0,-6.51,-7.69,-7.61,0,*5A
1514394184.7,65202,4.75,71644.0,-6.51,-7.73,-7.83,0,*5E
1514394185.94,65203,4.75,71640.0,-6.51,-7.69,-7.73,0,*5B
1514394187.19,65204,4.75,71648.8,-6.51,-7.69,-7.61,0,*5F
1514394188.44,65205,4.75,71630.3,-6.51,-7.69,-7.69,0,*56
1514394189.69,65206,4.75,71634.0,-6.51,-7.73,-7.61,0,*56
1514394190.96,65207,4.75,71640.3,-6.53,-7.77,-7.65,0,*55
1514394192.18,65208,4.75,71624.8,-6.53,-7.53,-7.53,0,*59
1514394193.46,65209,4.75,71632.0,-6.53,-7.65,-7.73,0,*5F
1514394194.71,65210,4.75,71624.8,-6.51,-7.61,-7.61,0,*52
1514394195.95,65211,4.75,71612.5,-6.53,-7.61,-7.53,0,*50
1514394197.17,65212,4.75,71612.8,-6.53,-7.53,-7.53,0,*52
1514394198.41,65213,4.75,71586.3,-6.51,-7.69,-7.57,0,*5C
1514394199.66,65214,4.75,71584.8,-6.51,-7.69,-7.61,0,*5E
1514394200.89,65215,4.75,71596.5,-6.51,-7.73,-7.83,0,*58
1514394202.15,65216,4.75,71606.0,-6.51,-7.61,-7.61,0,*54
1514394203.43,65217,4.75,71614.3,-6.53,-7.73,-7.65,0,*50
1514394204.7,65218,4.75,71614.8,-6.53,-7.65,-7.65,0,*58
1514394205.98,65219,4.75,71584.5,-6.53,-7.73,-7.65,0,*5E
1514394207.26,65220,4.75,71598.8,-6.53,-7.73,-7.73,0,*53
1514394208.47,65221,4.75,71620.8,-6.53,-7.53,-7.53,0,*52
1514394209.69,65222,4.75,71620.3,-6.53,-7.53,-7.53,0,*51
1514394210.93,65223,4.75,71610.8,-6.51,-7.61,-7.69,0,*5A
1514394212.18,65224,4.75,71568.3,-6.51,-7.69,-7.69,0,*55
1514394213.38,65225,4.75,71580.8,-6.51,-7.83,-7.83,0,*54
1514394214.61,65226,4.75,71600.3,-6.51,-7.73,-7.83,0,*58
1514394215.86,65227,4.75,71602.3,-6.51,-7.57,-7.57,0,*56
1514394217.14,65228,4.75,71616.3,-6.53,-7.61,-7.61,0,*5B
1514394218.38,65229,4.75,71654.3,-6.53,-7.61,-7.53,0,*5B
1514394219.63,65230,4.75,71644.5,-6.53,-7.61,-7.53,0,*53
1514394220.9,65231,4.75,71632.8,-6.53,-7.73,-7.73,0,*53
1514394222.15,65232,4.75,71620.3,-6.53,-7.65,-7.53,0,*55
1514394223.39,65233,4.75,71600.3,-6.53,-7.61,-7.53,0,*50
1514394224.67,65234,4.75,71618.5,-6.53,-7.65,-7.73,0,*51
1514394225.88,65235,4.75,71618.3,-6.53,-7.53,-7.53,0,*57
1514394227.14,65236,4.75,71614.8,-6.53,-7.39,-7.39,0,*54
1514394228.39,65237,4.75,71616.0,-6.53,-7.61,-7.53,0,*54
1514394229.63,65238,4.75,71650.8,-6.53,-7.49,-7.39,0,*5D
1514394230.88,65239,4.75,71650.8,-6.51,-7.35,-7.43,0,*58
1514394232.13,65240,4.75,71644.8,-6.51,-7.31,-7.35,0,*53
1514394233.38,65241,4.75,71638.8,-6.51,-7.43,-7.43,0,*56
1514394234.63,65242,4.75,71654.5,-6.51,-7.35,-7.35,0,*55
1514394235.88,65243,4.75,71636.0,-6.51,-7.43,-7.43,0,*54
1514394237.1,65244,4.75,71642.5,-6.53,-7.53,-7.53,0,*51
1514394238.35,65245,4.75,71648.0,-6.51,-7.61,-7.61,0,*52
1514394239.6,65246,4.75,71634.5,-6.51,-7.61,-7.57,0,*54
1514394240.83,65247,4.75,71640.8,-6.51,-7.57,-7.49,0,*5F
1514394242.05,65248,4.75,71628.0,-6.51,-7.49,-7.43,0,*55
1514394243.24,65249,4.75,71620.8,-6.51,-7.49,-7.49,0,*5E
1514394244.49,65250,4.75,71642.5,-6.51,-7.39,-7.35,0,*5A
1514394245.73,65251,4.75,71642.3,-6.51,-7.43,-7.35,0,*56
1514394246.99,65252,4.75,71636.5,-6.51,-7.43,-7.43,0,*54
1514394248.24,65253,4.75,71590.3,-6.51,-7.43,-7.43,0,*55
1514394249.48,65254,4.75,71580.3,-6.53,-7.61,-7.53,0,*51
1514394250.76,65255,4.75,71578.3,-6.53,-7.65,-7.61,0,*55
1514394252.01,65256,4.75,71624.0,-6.51,-7.65,-7.65,0,*50
1514394253.23,65257,4.75,71624.8,-6.51,-7.43,-7.49,0,*5B
1514394254.46,65258,4.75,71604.3,-6.47,-7.53,-7.43,0,*58
1514394255.71,65259,4.75,71574.3,-6.51,-7.57,-7.57,0,*5F
1514394256.96,65260,4.75,71568.5,-6.47,-7.65,-7.57,0,*53
1514394258.21,65261,4.75,71600.8,-6.51,-7.61,-7.61,0,*54
1514394259.46,65262,4.75,71614.0,-6.51,-7.69,-7.61,0,*5F
1514394260.69,65263,4.75,71604.8,-6.51,-7.43,-7.49,0,*5C
1514394261.94,65264,4.75,71608.0,-6.51,-7.57,-7.57,0,*51
1514394263.22,65265,4.75,71574.0,-6.53,-7.65,-7.61,0,*56
1514394264.46,65266,4.75,71608.3,-6.53,-7.61,-7.53,0,*50
1514394265.68,65267,4.75,71600.0,-6.53,-7.53,-7.53,0,*50
1514394266.92,65268,4.75,71624.3,-6.53,-7.53,-7.61,0,*5E
1514394268.2,65269,4.69,71620.0,-6.53,-7.65,-7.65,0,*5E
1514394269.47,65270,4.75,71610.5,-6.53,-7.65,-7.65,0,*56
1514394270.75,65271,4.75,71614.5,-6.53,-7.61,-7.61,0,*57
1514394272.02,65272,4.75,71560.5,-6.53,-7.61,-7.61,0,*54
1514394273.27,65273,4.75,71594.5,-6.51,-7.69,-7.69,0,*57
1514394274.54,65274,4.75,71588.0,-6.53,-7.65,-7.65,0,*52
1514394275.76,65275,4.75,71612.8,-6.53,-7.53,-7.53,0,*53
1514394276.98,65276,4.75,71594.3,-6.51,-7.43,-7.49,0,*58
1514394278.23,65277,4.75,71584.0,-6.51,-7.61,-7.61,0,*53
1514394279.48,65278,4.75,71570.0,-6.53,-7.53,-7.61,0,*5F
1514394280.74,65279,4.75,71564.5,-6.55,-7.61,-7.61,0,*59
1514394281.98,65280,4.75,71586.8,-6.53,-7.49,-7.39,0,*5E
1514394283.26,65281,4.75,71582.5,-6.53,-7.65,-7.61,0,*5C
1514394284.51,65282,4.75,71620.8,-6.51,-7.69,-7.61,0,*51
1514394285.73,65283,4.75,71590.8,-6.51,-7.49,-7.43,0,*52
1514394286.99,65284,4.75,71590.0,-6.51,-7.57,-7.43,0,*5A
1514394288.24,65285,4.75,71586.8,-6.51,-7.57,-7.57,0,*5E
1514394289.49,65286,4.75,71570.3,-6.51,-7.61,-7.57,0,*58
1514394290.71,65287,4.75,71584.3,-6.47,-7.53,-7.57,0,*5F
1514394291.99,65288,4.75,71566.5,-6.53,-7.61,-7.73,0,*52
1514394293.27,65289,4.75,71572.3,-6.53,-7.73,-7.73,0,*50
1514394294.54,65290,4.75,71558.8,-6.53,-7.73,-7.65,0,*5F
1514394295.8,65291,4.75,71558.5,-6.55,-7.65,-7.65,0,*5F
1514394297.07,65292,4.75,71544.5,-6.53,-7.73,-7.65,0,*5D
1514394298.29,65293,4.75,71550.5,-6.53,-7.53,-7.49,0,*50
1514394299.55,65294,4.75,71544.0,-6.55,-7.61,-7.61,0,*5A
1514394300.79,65295,4.75,71556.8,-6.53,-7.61,-7.53,0,*5C
1514394302.04,65296,4.75,71564.8,-6.53,-7.53,-7.61,0,*5F
1514394303.32,65297,4.75,71552.3,-6.53,-7.73,-7.73,0,*5F
1514394304.6,65298,4.75,71564.8,-6.53,-7.61,-7.61,0,*50
1514394305.84,65299,4.75,71580.3,-6.53,-7.49,-7.39,0,*56
1514394307.08,65300,4.75,71568.0,-6.53,-7.61,-7.49,0,*5A
1514394308.33,65301,4.75,71560.5,-6.53,-7.49,-7.39,0,*56
1514394309.58,65302,4.75,71552.3,-6.51,-7.57,-7.57,0,*50
1514394310.86,65303,4.75,71558.8,-6.53,-7.73,-7.73,0,*53
1514394312.11,65304,4.75,71552.8,-6.51,-7.61,-7.69,0,*5E
1514394313.36,65305,4.75,71576.0,-6.51,-7.61,-7.57,0,*52
1514394314.62,65306,4.75,71576.8,-6.53,-7.39,-7.39,0,*56
1514394315.89,65307,4.75,71560.3,-6.53,-7.39,-7.39,0,*57
1514394317.16,65308,4.75,71562.3,-6.53,-7.61,-7.61,0,*58
1514394318.41,65309,4.75,71586.8,-6.53,-7.61,-7.53,0,*58
1514394319.68,65310,4.75,71612.5,-6.53,-7.65,-7.65,0,*51
1514394320.93,65311,4.75,71576.0,-6.51,-7.43,-7.35,0,*53
1514394322.17,65312,4.75,71606.5,-6.47,-7.39,-7.39,0,*56
1514394323.38,65313,4.75,71590.3,-6.53,-7.49,-7.53,0,*59
1514394324.63,65314,4.75,71598.5,-6.51,-7.35,-7.35,0,*57
1514394325.88,65315,4.75,71606.3,-6.51,-7.35,-7.35,0,*56
1514394327.13,65316,4.75,71596.8,-6.51,-7.43,-7.43,0,*55
1514394328.37,65317,4.75,71576.8,-6.53,-7.39,-7.49,0,*51
1514394329.59,65318,4.75,71604.5,-6.53,-7.53,-7.49,0,*52
1514394330.78,65319,4.75,71618.8,-6.51,-7.49,-7.49,0,*5A
1514394332.02,65320,4.75,71614.8,-6.47,-7.39,-7.31,0,*5F
1514394333.27,65321,4.75,71604.5,-6.47,-7.43,-7.31,0,*53
1514394334.5,65322,4.69,71590.8,-6.51,-7.49,-7.43,0,*58
1514394335.72,65323,4.75,71600.0,-6.51,-7.49,-7.57,0,*5C
1514394336.97,65324,4.75,71598.0,-6.51,-7.61,-7.57,0,*51
1514394338.19,65325,4.75,71590.0,-6.51,-7.61,-7.49,0,*5F
1514394339.42,65326,4.75,71602.3,-6.51,-7.57,-7.49,0,*59
1514394340.61,65327,4.75,71596.5,-6.51,-7.49,-7.49,0,*57
1514394341.83,65328,4.75,71592.8,-6.51,-7.49,-7.43,0,*52
1514394343.06,65329,4.75,71582.0,-6.47,-7.57,-7.53,0,*5A
1514394344.31,65330,4.69,71574.8,-6.51,-7.61,-7.57,0,*54
1514394345.56,65331,4.75,71572.3,-6.51,-7.69,-7.61,0,*58
1514394346.81,65332,4.75,71576.0,-6.51,-7.61,-7.61,0,*53
1514394348.07,65333,4.75,71572.5,-6.51,-7.57,-7.61,0,*57
1514394349.32,65334,4.75,71566.5,-6.51,-7.61,-7.61,0,*55
1514394350.6,65335,4.75,71568.5,-6.53,-7.73,-7.73,0,*56
1514394351.87,65336,4.75,71602.5,-6.53,-7.65,-7.65,0,*55
1514394353.09,65337,4.75,71598.3,-6.53,-7.53,-7.53,0,*54
1514394354.31,65338,4.75,71586.8,-6.51,-7.43,-7.49,0,*53
1514394355.53,65339,4.75,71592.3,-6.51,-7.49,-7.43,0,*52
1514394356.79,65340,4.75,71616.8,-6.51,-7.35,-7.43,0,*57
1514394357.98,65341,4.75,71602.0,-6.51,-7.49,-7.49,0,*57
1514394359.23,65342,4.75,71592.3,-6.47,-7.43,-7.43,0,*53
1514394360.47,65343,4.75,71582.5,-6.53,-7.49,-7.39,0,*50
1514394361.69,65344,4.75,71590.5,-6.53,-7.49,-7.49,0,*50
1514394362.91,65345,4.75,71600.0,-6.51,-7.49,-7.35,0,*58
1514394364.16,65346,4.75,71610.0,-6.51,-7.43,-7.35,0,*51
1514394365.37,65347,4.75,71598.3,-6.53,-7.53,-7.53,0,*53
1514394366.65,65348,4.75,71598.5,-6.53,-7.61,-7.61,0,*5C
1514394367.87,65349,4.75,71624.5,-6.51,-7.49,-7.43,0,*55
1514394369.12,65350,4.75,71604.0,-6.47,-7.43,-7.39,0,*5D
1514394370.38,65351,4.75,71590.5,-6.51,-7.57,-7.35,0,*52
1514394371.59,65352,4.75,71590.0,-6.53,-7.53,-7.53,0,*57
1514394372.87,65353,4.75,71588.3,-6.53,-7.65,-7.61,0,*52
1514394374.12,65354,4.75,71580.5,-6.51,-7.73,-7.61,0,*50
1514394375.37,65355,4.75,71596.0,-6.51,-7.61,-7.57,0,*57
1514394376.63,65356,4.75,71598.0,-6.51,-7.61,-7.61,0,*51
1514394377.85,65357,4.75,71592.5,-6.47,-7.53,-7.43,0,*56
1514394379.1,65358,4.75,71594.3,-6.51,-7.69,-7.69,0,*5F
1514394380.34,65359,4.75,71590.8,-6.51,-7.69,-7.73,0,*55
1514394381.57,65360,4.75,71634.8,-6.51,-7.69,-7.83,0,*50
1514394382.82,65361,4.69,71620.0,-6.51,-7.69,-7.61,0,*5D
1514394384.07,65362,4.69,71592.3,-6.51,-7.61,-7.61,0,*56
1514394385.26,65363,4.75,71590.0,-6.51,-7.49,-7.49,0,*57
1514394386.52,65364,4.75,71602.8,-6.51,-7.57,-7.57,0,*50
1514394387.77,65365,4.75,71618.5,-6.51,-7.57,-7.61,0,*54
1514394389.0,65366,4.75,71612.8,-6.51,-7.49,-7.43,0,*58
1514394390.21,65367,4.75,71596.5,-6.53,-7.49,-7.49,0,*51
1514394391.48,65368,4.75,71594.8,-6.53,-7.39,-7.39,0,*5E
1514394392.74,65369,4.75,71606.0,-6.53,-7.39,-7.39,0,*5F
1514394393.99,65370,4.75,71562.8,-6.51,-7.35,-7.35,0,*55
1514394395.22,65371,4.75,71574.8,-6.51,-7.49,-7.43,0,*5E
1514394396.47,65372,4.75,71584.0,-6.51,-7.43,-7.43,0,*57
1514394397.66,65373,4.75,71600.3,-6.51,-7.49,-7.49,0,*56
1514394398.91,65374,4.75,71606.8,-6.51,-7.43,-7.43,0,*51
1514394400.17,65375,4.75,71576.8,-6.51,-7.57,-7.57,0,*50
1514394401.42,65376,4.69,71580.3,-6.51,-7.69,-7.61,0,*5B
1514394402.7,65377,4.75,71606.8,-6.53,-7.61,-7.61,0,*50
1514394403.89,65378,4.75,71598.3,-6.51,-7.49,-7.49,0,*5D
1514394405.08,65379,4.75,71590.5,-6.51,-7.49,-7.49,0,*5C
1514394406.27,65380,4.75,71620.3,-6.51,-7.49,-7.49,0,*5A
1514394407.5,65381,4.75,71574.0,-6.51,-7.49,-7.43,0,*51
1514394408.75,65382,4.75,71580.0,-6.47,-7.43,-7.39,0,*52
1514394409.96,65383,4.75,71580.0,-6.51,-7.49,-7.35,0,*52
1514394411.21,65384,4.75,71630.3,-6.51,-7.39,-7.39,0,*5E
1514394412.46,65385,4.75,71588.0,-6.51,-7.35,-7.43,0,*5E
1514394413.68,65386,4.75,71582.8,-6.51,-7.57,-7.49,0,*53
1514394414.94,65387,4.75,71626.3,-6.51,-7.43,-7.43,0,*5D
1514394416.18,65388,4.75,71632.8,-6.47,-7.35,-7.39,0,*59
1514394417.44,65389,4.69,71554.8,-6.51,-7.43,-7.43,0,*53
1514394418.66,65390,4.75,71568.3,-6.51,-7.49,-7.43,0,*51
1514394419.91,65391,4.75,71622.0,-6.51,-7.35,-7.35,0,*5A
1514394421.16,65392,4.75,71578.3,-6.51,-7.43,-7.43,0,*59
1514394422.41,65393,4.75,71572.5,-6.51,-7.43,-7.43,0,*58
1514394423.65,65394,4.75,71608.0,-6.47,-7.39,-7.39,0,*58
1514394424.88,65395,4.75,71614.0,-6.51,-7.43,-7.49,0,*54
1514394426.1,65396,4.69,71626.8,-6.51,-7.49,-7.43,0,*57
1514394427.36,65397,4.75,71620.3,-6.47,-7.57,-7.43,0,*5E
1514394428.6,65398,4.75,71620.8,-6.47,-7.31,-7.31,0,*54
1514394429.85,65399,4.75,71656.3,-6.51,-7.43,-7.43,0,*52
1514394431.1,65400,4.69,71622.0,-6.51,-7.43,-7.35,0,*54
1514394432.36,65401,4.75,71610.5,-6.51,-7.57,-7.57,0,*54
1514394433.58,65402,4.75,71614.0,-6.51,-7.49,-7.43,0,*5D
1514394434.84,65403,4.75,71628.8,-6.51,-7.57,-7.57,0,*56
1514394436.09,65404,4.75,71652.0,-6.51,-7.61,-7.57,0,*54
1514394437.34,65405,4.75,71652.0,-6.51,-7.35,-7.35,0,*50
1514394438.59,65406,4.75,71654.0,-6.51,-7.35,-7.43,0,*52
1514394439.83,65407,4.75,71662.5,-6.47,-7.31,-7.31,0,*55
1514394441.08,65408,4.75,71662.0,-6.47,-7.31,-7.31,0,*5A
1514394442.33,65409,4.75,71638.3,-6.51,-7.35,-7.35,0,*5C
1514394443.55,65410,4.69,71628.0,-6.51,-7.49,-7.43,0,*5E
1514394444.8,65411,4.75,71640.3,-6.51,-7.43,-7.35,0,*54
1514394446.02,65412,4.75,71638.0,-6.51,-7.49,-7.43,0,*5C
1514394447.27,65413,4.75,71602.3,-6.51,-7.43,-7.43,0,*57
1514394448.53,65414,4.75,71590.3,-6.51,-7.43,-7.43,0,*50
1514394449.77,65415,4.75,71586.3,-6.47,-7.39,-7.39,0,*56
1514394450.96,65416,4.75,71580.0,-6.47,-7.49,-7.49,0,*55
1514394452.21,65417,4.69,71584.3,-6.51,-7.61,-7.61,0,*53
1514394453.46,65418,4.75,71580.0,-6.51,-7.43,-7.35,0,*5D
1514394454.71,65419,4.75,71588.0,-6.51,-7.35,-7.35,0,*5D
1514394455.96,65420,4.75,71584.8,-6.51,-7.35,-7.35,0,*57
1514394457.2,65421,4.75,71594.5,-6.47,-7.39,-7.31,0,*59
1514394458.42,65422,4.75,71586.5,-6.51,-7.49,-7.43,0,*5F
1514394459.67,65423,4.69,71586.8,-6.47,-7.43,-7.31,0,*56
1514394460.89,65424,4.69,71586.8,-6.51,-7.35,-7.49,0,*58
1514394462.14,65425,4.75,71608.0,-6.47,-7.31,-7.39,0,*5D
1514394463.38,65426,4.75,71630.0,-6.47,-7.31,-7.31,0,*56
1514394464.63,65427,4.69,71634.3,-6.51,-7.35,-7.35,0,*50
1514394465.88,65428,4.75,71628.8,-6.51,-7.35,-7.35,0,*5F
1514394467.07,65429,4.69,71622.8,-6.51,-7.49,-7.49,0,*5E
1514394468.3,65430,4.75,71608.5,-6.47,-7.53,-7.43,0,*50
1514394469.49,65431,4.75,71590.5,-6.51,-7.53,-7.53,0,*57
1514394470.74,65432,4.75,71588.3,-6.51,-7.61,-7.61,0,*54
1514394472.0,65433,4.75,71612.5,-6.51,-7.57,-7.57,0,*55
1514394473.25,65434,4.69,71600.5,-6.51,-7.57,-7.57,0,*52
1514394474.44,65435,4.75,71600.8,-6.51,-7.49,-7.49,0,*53
1514394475.69,65436,4.75,71586.0,-6.51,-7.43,-7.35,0,*51
1514394476.91,65437,4.69,71578.3,-6.47,-7.49,-7.61,0,*5C
1514394478.14,65438,4.75,71606.0,-6.51,-7.49,-7.57,0,*51
1514394479.39,65439,4.69,71626.8,-6.51,-7.43,-7.43,0,*5F
1514394480.63,65440,4.75,71630.8,-6.47,-7.39,-7.39,0,*56
1514394481.88,65441,4.69,71612.5,-6.47,-7.31,-7.31,0,*57
1514394483.13,65442,4.75,71594.0,-6.47,-7.43,-7.43,0,*54
1514394484.35,65443,4.75,71606.0,-6.47,-7.53,-7.43,0,*54
1514394485.6,65444,4.75,71598.3,-6.47,-7.43,-7.31,0,*57
1514394486.85,65445,4.75,71590.0,-6.51,-7.57,-7.57,0,*54
1514394488.05,65446,4.75,71570.3,-6.51,-7.49,-7.49,0,*57
1514394489.3,65447,4.75,71578.8,-6.47,-7.43,-7.43,0,*51
1514394490.53,65448,4.75,71602.3,-6.51,-7.57,-7.49,0,*56
1514394491.77,65449,4.75,71606.0,-6.51,-7.35,-7.35,0,*58
1514394493.02,65450,4.69,71622.8,-6.51,-7.43,-7.35,0,*51
1514394494.21,65451,4.75,71610.8,-6.51,-7.53,-7.53,0,*51
1514394495.46,65452,4.75,71560.0,-6.47,-7.39,-7.39,0,*55
1514394496.71,65453,4.75,71582.0,-6.51,-7.61,-7.57,0,*56
1514394497.96,65454,4.69,71592.5,-6.47,-7.65,-7.65,0,*53
1514394499.2,65455,4.69,71600.5,-6.47,-7.77,-7.69,0,*5D
1514394500.45,65456,4.75,71622.0,-6.51,-7.69,-7.61,0,*5E
1514394501.71,65457,4.75,71608.5,-6.51,-7.73,-7.73,0,*57
1514394502.95,65458,4.75,71610.5,-6.47,-7.77,-7.77,0,*5F
1514394504.2,65459,4.75,71614.3,-6.47,-7.77,-7.69,0,*51
1514394505.42,65460,4.69,71616.5,-6.51,-7.83,-7.69,0,*57
1514394506.67,65461,4.75,71612.0,-6.47,-7.65,-7.65,0,*55
1514394507.89,65462,4.75,71642.8,-6.47,-7.57,-7.53,0,*52
1514394509.11,65463,4.75,71622.0,-6.51,-7.49,-7.57,0,*5F
1514394510.34,65464,4.75,71598.3,-6.51,-7.57,-7.49,0,*58
1514394511.59,65465,4.75,71584.0,-6.51,-7.57,-7.57,0,*56
1514394512.78,65466,4.75,71604.8,-6.51,-7.49,-7.49,0,*55
1514394514.04,65467,4.69,71588.8,-6.51,-7.61,-7.61,0,*54
1514394515.26,65468,4.75,71588.0,-6.51,-7.57,-7.49,0,*54
1514394516.52,65469,4.69,71594.0,-6.51,-7.57,-7.43,0,*5F
1514394517.74,65470,4.69,71600.5,-6.51,-7.43,-7.49,0,*58
1514394518.98,65471,4.69,71586.0,-6.47,-7.39,-7.39,0,*54
1514394520.2,65472,4.69,71588.5,-6.53,-7.53,-7.49,0,*59
1514394521.45,65473,4.69,71576.0,-6.51,-7.43,-7.35,0,*50